| time (UTC) | temp C | wind direction | speed KPH | gust KPH | rain 1hr cm | rain 24hr cm | rain mn cm | humidity % | barometer mb |
| 20260903075645 | 12 | 178 | 3.2 | 9.7 | 0.00 | 1.30 | 0.00 | 90 | 1018.9 |
| 20260903075146 | 12 | 153 | 3.2 | 9.7 | 0.00 | 1.30 | 0.00 | 90 | 1018.9 |
| 20260903074644 | 12 | 142 | 3.2 | 9.7 | 0.00 | 1.30 | 0.00 | 90 | 1018.9 |
| 20260903074144 | 12 | 144 | 4.8 | 9.7 | 0.00 | 1.30 | 0.00 | 90 | 1019.0 |
| 20260903073644 | 12 | 159 | 4.8 | 14.5 | 0.00 | 1.30 | 0.00 | 90 | 1018.9 |
| 20260903073143 | 12 | 114 | 4.8 | 14.5 | 0.00 | 1.30 | 0.00 | 90 | 1018.9 |
| 20260903072645 | 13 | 157 | 3.2 | 12.9 | 0.00 | 1.30 | 0.00 | 90 | 1018.9 |
| 20260903072144 | 13 | 165 | 3.2 | 11.3 | 0.00 | 1.30 | 0.00 | 90 | 1018.8 |
| 20260903071645 | 13 | 173 | 3.2 | 16.1 | 0.00 | 1.30 | 0.00 | 90 | 1018.9 |
| 20260903071138 | 13 | 163 | 3.2 | 16.1 | 0.00 | 1.30 | 0.00 | 90 | 1018.8 |
| 20260903070637 | 13 | 173 | 4.8 | 11.3 | 0.00 | 1.30 | 0.00 | 90 | 1018.7 |
| 20260903070138 | 13 | 123 | 4.8 | 16.1 | 0.00 | 1.30 | 0.00 | 90 | 1018.9 |
| 20260903065638 | 13 | 123 | 4.8 | 16.1 | 0.00 | 1.30 | 1.30 | 90 | 1018.8 |
| 20260903065138 | 13 | 188 | 4.8 | 14.5 | 0.00 | 1.30 | 1.30 | 91 | 1018.9 |
| 20260903064638 | 13 | 108 | 4.8 | 12.9 | 0.00 | 1.30 | 1.30 | 91 | 1018.9 |
| 20260903064136 | 13 | 153 | 3.2 | 12.9 | 0.00 | 1.30 | 1.30 | 90 | 1018.9 |
| 20260903063637 | 13 | 148 | 3.2 | 12.9 | 0.00 | 1.30 | 1.30 | 90 | 1019.0 |
| 20260903063136 | 13 | 147 | 3.2 | 12.9 | 0.00 | 1.30 | 1.30 | 90 | 1019.0 |
| 20260903062636 | 13 | 146 | 3.2 | 12.9 | 0.00 | 1.30 | 1.30 | 90 | 1018.8 |
| 20260903062136 | 13 | 152 | 3.2 | 12.9 | 0.00 | 1.30 | 1.30 | 90 | 1018.9 |
| 20260903061635 | 13 | 119 | 3.2 | 12.9 | 0.00 | 1.30 | 1.30 | 90 | 1019.0 |
| 20260903061142 | 13 | 147 | 3.2 | 9.7 | 0.00 | 1.30 | 1.30 | 90 | 1019.1 |
| 20260903060634 | 13 | 180 | 3.2 | 11.3 | 0.00 | 1.30 | 1.30 | 90 | 1019.0 |
| 20260903060133 | 13 | 161 | 3.2 | 12.9 | 0.00 | 1.30 | 1.30 | 90 | 1019.1 |
| 20260903055634 | 13 | 153 | 3.2 | 12.9 | 0.00 | 1.30 | 1.30 | 90 | 1019.0 |
| 20260903055135 | 13 | 177 | 3.2 | 11.3 | 0.00 | 1.30 | 1.30 | 90 | 1019.0 |
| 20260903054635 | 13 | 134 | 1.6 | 9.7 | 0.00 | 1.30 | 1.30 | 90 | 1019.0 |
| 20260903054131 | 13 | 171 | 3.2 | 11.3 | 0.00 | 1.30 | 1.30 | 90 | 1019.1 |
| 20260903053632 | 13 | 157 | 3.2 | 11.3 | 0.00 | 1.30 | 1.30 | 90 | 1019.1 |
| 20260903053127 | 13 | 164 | 3.2 | 8.0 | 0.00 | 1.30 | 1.30 | 90 | 1019.1 |
| 20260903052625 | 13 | 148 | 1.6 | 8.0 | 0.00 | 1.30 | 1.30 | 91 | 1019.1 |
| 20260903052124 | 13 | 152 | 3.2 | 9.7 | 0.00 | 1.30 | 1.30 | 91 | 1019.1 |
| 20260903051625 | 13 | 194 | 3.2 | 9.7 | 0.00 | 1.30 | 1.30 | 91 | 1019.0 |
| 20260903051124 | 13 | 146 | 3.2 | 9.7 | 0.00 | 1.30 | 1.30 | 91 | 1019.0 |
| 20260903050626 | 13 | 187 | 1.6 | 9.7 | 0.00 | 1.30 | 1.30 | 91 | 1018.9 |
| 20260903050121 | 13 | 134 | 3.2 | 12.9 | 0.00 | 1.30 | 1.30 | 91 | 1018.9 |
| 20260903045623 | 13 | 173 | 4.8 | 12.9 | 0.00 | 1.30 | 1.30 | 91 | 1018.9 |
| 20260903045121 | 13 | 138 | 3.2 | 11.3 | 0.00 | 1.30 | 1.30 | 91 | 1018.9 |
| 20260903044621 | 13 | 131 | 1.6 | 11.3 | 0.00 | 1.30 | 1.30 | 91 | 1018.7 |
| 20260903044123 | 13 | 126 | 1.6 | 8.0 | 0.00 | 1.30 | 1.30 | 91 | 1018.5 |
| 20260903043622 | 13 | 185 | 1.6 | 8.0 | 0.00 | 1.30 | 1.30 | 91 | 1018.4 |
| 20260903043123 | 13 | 157 | 4.8 | 12.9 | 0.00 | 1.30 | 1.30 | 91 | 1018.3 |
| 20260903042618 | 13 | 146 | 4.8 | 12.9 | 0.00 | 1.30 | 1.30 | 91 | 1018.3 |
| 20260903042118 | 13 | 158 | 4.8 | 16.1 | 0.00 | 1.30 | 1.30 | 91 | 1018.4 |
| 20260903041614 | 13 | 146 | 4.8 | 16.1 | 0.00 | 1.30 | 1.30 | 91 | 1018.3 |
| 20260903041106 | 13 | 161 | 4.8 | 16.1 | 0.00 | 1.30 | 1.30 | 90 | 1018.3 |
| 20260903040600 | 13 | 159 | 4.8 | 16.1 | 0.00 | 1.30 | 1.30 | 90 | 1018.3 |
| 20260903040059 | 13 | 188 | 6.4 | 16.1 | 0.00 | 1.30 | 1.30 | 90 | 1018.3 |
| 20260903035600 | 13 | 150 | 4.8 | 12.9 | 0.00 | 1.30 | 1.30 | 90 | 1018.3 |
| 20260903035100 | 13 | 148 | 3.2 | 12.9 | 0.00 | 1.30 | 1.30 | 90 | 1018.2 |
| 20260903034600 | 13 | 124 | 4.8 | 11.3 | 0.00 | 1.30 | 1.30 | 90 | 1018.1 |
| 20260903034100 | 13 | 144 | 4.8 | 12.9 | 0.00 | 1.30 | 1.30 | 90 | 1017.9 |
| 20260903033600 | 13 | 154 | 4.8 | 14.5 | 0.00 | 1.30 | 1.30 | 89 | 1017.9 |
| 20260903033056 | 13 | 127 | 4.8 | 14.5 | 0.00 | 1.30 | 1.30 | 90 | 1017.9 |
| 20260903032555 | 13 | 159 | 3.2 | 11.3 | 0.00 | 1.30 | 1.30 | 89 | 1018.0 |
| 20260903032056 | 13 | 173 | 3.2 | 11.3 | 0.00 | 1.30 | 1.30 | 89 | 1018.0 |
| 20260903031556 | 13 | 153 | 4.8 | 11.3 | 0.00 | 1.30 | 1.30 | 89 | 1017.9 |
| 20260903031055 | 14 | 176 | 4.8 | 11.3 | 0.00 | 1.30 | 1.30 | 89 | 1017.8 |
| 20260903030558 | 14 | 194 | 3.2 | 11.3 | 0.00 | 1.30 | 1.30 | 89 | 1017.7 |
| 20260903030051 | 14 | 174 | 3.2 | 9.7 | 0.00 | 1.30 | 1.30 | 89 | 1017.6 |
| 20260903025551 | 14 | 175 | 3.2 | 9.7 | 0.00 | 1.30 | 1.30 | 89 | 1017.4 |
| 20260903025052 | 14 | 182 | 3.2 | 9.7 | 0.00 | 1.30 | 1.30 | 89 | 1017.3 |
| 20260903024552 | 14 | 175 | 1.6 | 9.7 | 0.00 | 1.30 | 1.30 | 89 | 1017.4 |
| 20260903024051 | 14 | 155 | 3.2 | 11.3 | 0.00 | 1.30 | 1.30 | 89 | 1017.4 |
| 20260903023553 | 14 | 159 | 3.2 | 11.3 | 0.00 | 1.30 | 1.30 | 89 | 1017.4 |
| 20260903023047 | 14 | 124 | 3.2 | 12.9 | 0.03 | 1.30 | 1.30 | 90 | 1017.4 |
| 20260903022547 | 15 | 166 | 3.2 | 12.9 | 0.03 | 1.30 | 1.30 | 90 | 1017.5 |
| 20260903022047 | 15 | 150 | 3.2 | 9.7 | 0.03 | 1.30 | 1.30 | 90 | 1017.5 |
| 20260903021547 | 15 | 215 | 3.2 | 11.3 | 0.03 | 1.30 | 1.30 | 90 | 1017.4 |
| 20260903021047 | 15 | 153 | 3.2 | 11.3 | 0.03 | 1.30 | 1.30 | 90 | 1017.3 |
| 20260903020547 | 15 | 104 | 3.2 | 8.0 | 0.03 | 1.30 | 1.30 | 90 | 1017.2 |
| 20260903020045 | 15 | 161 | 3.2 | 11.3 | 0.03 | 1.30 | 1.30 | 90 | 1017.2 |
| 20260903015545 | 15 | 188 | 4.8 | 11.3 | 0.03 | 1.30 | 1.30 | 90 | 1017.2 |
| 20260903015045 | 15 | 171 | 4.8 | 9.7 | 0.03 | 1.30 | 1.30 | 90 | 1017.1 |
| 20260903014545 | 15 | 157 | 3.2 | 9.7 | 0.05 | 1.30 | 1.30 | 90 | 1017.1 |
| 20260903014045 | 15 | 175 | 3.2 | 9.7 | 0.08 | 1.30 | 1.30 | 90 | 1017.0 |
| 20260903013545 | 15 | 162 | 3.2 | 9.7 | 0.10 | 1.30 | 1.30 | 90 | 1016.9 |
| 20260903013046 | 15 | 157 | 3.2 | 9.7 | 0.08 | 1.27 | 1.27 | 89 | 1016.9 |
| 20260903012543 | 15 | 221 | 3.2 | 8.0 | 0.08 | 1.27 | 1.27 | 89 | 1017.1 |
| 20260903012041 | 15 | 192 | 3.2 | 11.3 | 0.08 | 1.27 | 1.27 | 89 | 1016.9 |
| 20260903011542 | 15 | 155 | 3.2 | 11.3 | 0.08 | 1.27 | 1.27 | 89 | 1016.9 |
| 20260903011041 | 15 | 185 | 3.2 | 11.3 | 0.08 | 1.27 | 1.27 | 89 | 1016.8 |
| 20260903010539 | 15 | 202 | 3.2 | 9.7 | 0.08 | 1.27 | 1.27 | 89 | 1016.9 |
| 20260903010039 | 15 | 157 | 3.2 | 9.7 | 0.08 | 1.27 | 1.27 | 89 | 1016.7 |
| 20260903005535 | 15 | 217 | 3.2 | 9.7 | 0.08 | 1.27 | 1.27 | 89 | 1016.6 |
| 20260903005035 | 15 | 182 | 3.2 | 8.0 | 0.08 | 1.27 | 1.27 | 89 | 1016.6 |
| 20260903004536 | 15 | 153 | 1.6 | 11.3 | 0.05 | 1.24 | 1.24 | 89 | 1016.7 |
| 20260903004035 | 15 | 241 | 1.6 | 11.3 | 0.03 | 1.22 | 1.22 | 89 | 1016.7 |
| 20260903003533 | 16 | 161 | 1.6 | 6.4 | 0.00 | 1.19 | 1.19 | 90 | 1016.7 |
| 20260903003033 | 16 | 159 | 1.6 | 9.7 | 0.00 | 1.19 | 1.19 | 90 | 1016.5 |
| 20260903002527 | 16 | 159 | 1.6 | 9.7 | 0.00 | 1.19 | 1.19 | 90 | 1016.6 |
| 20260903002026 | 16 | 186 | 1.6 | 8.0 | 0.00 | 1.19 | 1.19 | 90 | 1016.7 |
| 20260903001523 | 16 | 159 | 3.2 | 8.0 | 0.03 | 1.19 | 1.19 | 90 | 1016.5 |
| 20260903001021 | 16 | 150 | 1.6 | 8.0 | 0.20 | 1.19 | 1.19 | 90 | 1016.4 |
| 20260903000521 | 16 | 111 | 1.6 | 8.0 | 0.23 | 1.19 | 1.19 | 91 | 1016.4 |
| 20260903000015 | 15 | 154 | 1.6 | 8.0 | 0.25 | 1.19 | 1.19 | 91 | 1016.3 |
| 20260902235515 | 15 | 186 | 1.6 | 6.4 | 0.25 | 1.19 | 1.19 | 91 | 1016.4 |
| 20260902235015 | 15 | 146 | 1.6 | 6.4 | 0.28 | 1.19 | 1.19 | 91 | 1016.3 |
| 20260902234516 | 15 | 169 | 1.6 | 6.4 | 0.30 | 1.19 | 1.19 | 91 | 1016.2 |
| 20260902234015 | 15 | 179 | 1.6 | 6.4 | 0.33 | 1.19 | 1.19 | 91 | 1016.2 |
| 20260902233516 | 15 | 184 | 1.6 | 8.0 | 0.33 | 1.19 | 1.19 | 91 | 1016.2 |
| 20260902233014 | 15 | 168 | 3.2 | 8.0 | 0.36 | 1.19 | 1.19 | 91 | 1016.2 |
| 20260902232511 | 15 | 165 | 1.6 | 12.9 | 0.36 | 1.19 | 1.19 | 91 | 1016.1 |
| 20260902232012 | 15 | 150 | 3.2 | 12.9 | 0.36 | 1.19 | 1.19 | 91 | 1016.1 |
| 20260902231511 | 15 | 186 | 4.8 | 14.5 | 0.33 | 1.14 | 1.14 | 91 | 1016.1 |
| 20260902231009 | 15 | 253 | 4.8 | 14.5 | 0.18 | 0.99 | 1.02 | 91 | 1016.1 |
| 20260902230510 | 15 | 219 | 6.4 | 17.7 | 0.15 | 0.97 | 0.97 | 91 | 1016.0 |
| 20260902230003 | 15 | 141 | 6.4 | 17.7 | 0.13 | 0.94 | 0.94 | 90 | 1015.9 |
| 20260902225503 | 15 | 169 | 6.4 | 16.1 | 0.13 | 0.94 | 0.94 | 90 | 1015.7 |
| 20260902225003 | 15 | 171 | 6.4 | 16.1 | 0.10 | 0.91 | 0.91 | 90 | 1015.7 |
| 20260902224503 | 15 | 151 | 6.4 | 16.1 | 0.10 | 0.89 | 0.89 | 90 | 1015.6 |
| 20260902224003 | 15 | 201 | 4.8 | 14.5 | 0.08 | 0.86 | 0.86 | 90 | 1015.6 |
| 20260902223504 | 15 | 187 | 4.8 | 11.3 | 0.08 | 0.86 | 0.86 | 90 | 1015.5 |
| 20260902223001 | 15 | 141 | 4.8 | 16.1 | 0.05 | 0.84 | 0.84 | 90 | 1015.5 |
| 20260902222459 | 15 | 174 | 6.4 | 16.1 | 0.05 | 0.84 | 0.84 | 90 | 1015.4 |
| 20260902222000 | 15 | 215 | 6.4 | 22.5 | 0.08 | 0.84 | 0.84 | 90 | 1015.5 |
| 20260902221459 | 15 | 221 | 6.4 | 22.5 | 0.05 | 0.81 | 0.81 | 90 | 1015.4 |
| 20260902220956 | 15 | 151 | 6.4 | 20.9 | 0.05 | 0.81 | 0.81 | 90 | 1015.5 |
| 20260902220458 | 15 | 184 | 6.4 | 20.9 | 0.05 | 0.81 | 0.81 | 90 | 1015.5 |
| 20260902215951 | 15 | 176 | 6.4 | 22.5 | 0.05 | 0.81 | 0.81 | 90 | 1015.4 |
| 20260902215451 | 15 | 166 | 6.4 | 22.5 | 0.08 | 0.81 | 0.81 | 89 | 1015.5 |
| 20260902214951 | 15 | 134 | 8.0 | 22.5 | 0.08 | 0.81 | 0.81 | 89 | 1015.4 |
| 20260902214451 | 15 | 170 | 8.0 | 20.9 | 0.05 | 0.79 | 0.79 | 89 | 1015.3 |
| 20260902213951 | 15 | 171 | 6.4 | 17.7 | 0.05 | 0.79 | 0.79 | 89 | 1015.4 |
| 20260902213451 | 15 | 148 | 8.0 | 19.3 | 0.05 | 0.79 | 0.79 | 89 | 1015.4 |
| 20260902212946 | 15 | 148 | 8.0 | 20.9 | 0.05 | 0.79 | 0.79 | 89 | 1015.3 |
| 20260902212445 | 15 | 110 | 8.0 | 22.5 | 0.05 | 0.79 | 0.79 | 89 | 1015.2 |
| 20260902211945 | 15 | 192 | 8.0 | 22.5 | 0.03 | 0.76 | 0.76 | 89 | 1015.3 |
| 20260902211448 | 15 | 160 | 8.0 | 22.5 | 0.03 | 0.76 | 0.76 | 89 | 1015.3 |
| 20260902210944 | 15 | 157 | 8.0 | 22.5 | 0.03 | 0.76 | 0.76 | 88 | 1015.4 |
| 20260902210446 | 15 | 146 | 8.0 | 22.5 | 0.03 | 0.76 | 0.76 | 89 | 1015.3 |
| 20260902205940 | 15 | 219 | 8.0 | 25.7 | 0.03 | 0.76 | 0.76 | 89 | 1015.4 |
| 20260902205439 | 15 | 176 | 6.4 | 25.7 | 0.00 | 0.74 | 0.74 | 88 | 1015.3 |
| 20260902204939 | 15 | 186 | 6.4 | 22.5 | 0.00 | 0.74 | 0.74 | 88 | 1015.2 |
| 20260902204443 | 15 | 190 | 4.8 | 20.9 | 0.03 | 0.74 | 0.74 | 88 | 1015.1 |
| 20260902203939 | 15 | 179 | 4.8 | 20.9 | 0.03 | 0.74 | 0.74 | 88 | 1015.2 |
| 20260902203440 | 15 | 208 | 4.8 | 14.5 | 0.03 | 0.74 | 0.74 | 88 | 1015.0 |
| 20260902202936 | 15 | 197 | 6.4 | 14.5 | 0.03 | 0.74 | 0.74 | 89 | 1015.0 |
| 20260902202435 | 15 | 145 | 6.4 | 19.3 | 0.05 | 0.74 | 0.74 | 89 | 1014.8 |
| 20260902201934 | 15 | 151 | 6.4 | 19.3 | 0.05 | 0.74 | 0.74 | 89 | 1014.8 |
| 20260902201433 | 15 | 151 | 6.4 | 14.5 | 0.08 | 0.74 | 0.74 | 89 | 1014.6 |
| 20260902200931 | 15 | 185 | 4.8 | 14.5 | 0.08 | 0.74 | 0.74 | 89 | 1014.7 |
| 20260902200432 | 15 | 163 | 4.8 | 16.1 | 0.10 | 0.74 | 0.74 | 90 | 1014.7 |
| 20260902195928 | 15 | 221 | 6.4 | 16.1 | 0.10 | 0.74 | 0.74 | 90 | 1014.7 |
| 20260902195428 | 15 | 157 | 6.4 | 16.1 | 0.13 | 0.74 | 0.74 | 90 | 1014.6 |
| 20260902194928 | 15 | 139 | 6.4 | 17.7 | 0.15 | 0.74 | 0.74 | 90 | 1014.5 |
| 20260902194428 | 15 | 168 | 4.8 | 17.7 | 0.15 | 0.71 | 0.74 | 90 | 1014.6 |
| 20260902193930 | 15 | 140 | 4.8 | 16.1 | 0.18 | 0.71 | 0.71 | 90 | 1014.5 |
| 20260902193429 | 15 | 162 | 4.8 | 22.5 | 0.20 | 0.71 | 0.71 | 90 | 1014.6 |
| 20260902192929 | 15 | 207 | 4.8 | 22.5 | 0.25 | 0.71 | 0.71 | 90 | 1014.6 |
| 20260902192426 | 15 | 148 | 6.4 | 22.5 | 0.25 | 0.69 | 0.69 | 90 | 1014.6 |
| 20260902191928 | 15 | 151 | 4.8 | 22.5 | 0.33 | 0.69 | 0.69 | 90 | 1014.7 |
| 20260902191427 | 15 | 155 | 4.8 | 19.3 | 0.36 | 0.66 | 0.66 | 90 | 1014.6 |
| 20260902190926 | 15 | 144 | 4.8 | 17.7 | 0.38 | 0.66 | 0.66 | 90 | 1014.7 |
| 20260902190426 | 15 | 124 | 3.2 | 16.1 | 0.41 | 0.64 | 0.66 | 90 | 1014.7 |
| 20260902185924 | 15 | 125 | 4.8 | 16.1 | 0.43 | 0.64 | 0.64 | 90 | 1014.6 |
| 20260902185425 | 15 | 110 | 4.8 | 16.1 | 0.41 | 0.61 | 0.61 | 90 | 1014.7 |
| 20260902184920 | 15 | 93 | 3.2 | 9.7 | 0.38 | 0.58 | 0.58 | 90 | 1014.8 |
| 20260902184420 | 15 | 132 | 3.2 | 14.5 | 0.36 | 0.56 | 0.56 | 90 | 1014.9 |
| 20260902183919 | 15 | 98 | 3.2 | 14.5 | 0.33 | 0.53 | 0.53 | 90 | 1014.8 |
| 20260902183418 | 15 | 117 | 3.2 | 9.7 | 0.30 | 0.51 | 0.51 | 90 | 1014.9 |
| 20260902182916 | 15 | 175 | 4.8 | 16.1 | 0.28 | 0.46 | 0.46 | 89 | 1015.1 |
| 20260902182418 | 15 | 79 | 4.8 | 16.1 | 0.25 | 0.43 | 0.43 | 89 | 1015.3 |
| 20260902181912 | 15 | 136 | 4.8 | 12.9 | 0.20 | 0.38 | 0.36 | 89 | 1015.1 |
| 20260902181406 | 15 | 132 | 3.2 | 11.3 | 0.18 | 0.33 | 0.30 | 89 | 1015.2 |
| 20260902180900 | 15 | 142 | 4.8 | 14.5 | 0.18 | 0.30 | 0.28 | 89 | 1015.0 |
| 20260902180354 | 15 | 147 | 4.8 | 14.5 | 0.15 | 0.25 | 0.23 | 89 | 1015.1 |
| 20260902175850 | 15 | 117 | 4.8 | 17.7 | 0.13 | 0.23 | 0.23 | 89 | 1015.3 |
| 20260902175350 | 15 | 171 | 4.8 | 17.7 | 0.15 | 0.23 | 0.20 | 89 | 1015.2 |
| 20260902174851 | 15 | 110 | 4.8 | 16.1 | 0.18 | 0.23 | 0.20 | 89 | 1015.2 |
| 20260902174350 | 15 | 152 | 4.8 | 11.3 | 0.18 | 0.23 | 0.20 | 89 | 1015.4 |
| 20260902173851 | 15 | 122 | 3.2 | 11.3 | 0.18 | 0.23 | 0.20 | 89 | 1015.4 |
| 20260902173351 | 15 | 162 | 3.2 | 11.3 | 0.20 | 0.23 | 0.20 | 89 | 1015.4 |
| 20260902172847 | 15 | 157 | 3.2 | 11.3 | 0.18 | 0.20 | 0.18 | 89 | 1015.5 |
| 20260902172346 | 15 | 146 | 3.2 | 11.3 | 0.18 | 0.20 | 0.18 | 89 | 1015.6 |
| 20260902171848 | 15 | 174 | 3.2 | 11.3 | 0.15 | 0.18 | 0.15 | 88 | 1015.7 |
| 20260902171346 | 15 | 194 | 3.2 | 9.7 | 0.13 | 0.15 | 0.13 | 88 | 1015.7 |
| 20260902170846 | 15 | 149 | 3.2 | 17.7 | 0.10 | 0.13 | 0.10 | 88 | 1015.7 |
| 20260902170347 | 15 | 207 | 4.8 | 17.7 | 0.08 | 0.10 | 0.10 | 87 | 1015.8 |
| 20260902165842 | 15 | 173 | 3.2 | 14.5 | 0.08 | 0.10 | 0.08 | 87 | 1015.6 |
| 20260902165342 | 15 | 237 | 3.2 | 14.5 | 0.05 | 0.08 | 0.05 | 86 | 1015.6 |
| 20260902164844 | 16 | 179 | 3.2 | 11.3 | 0.03 | 0.05 | 0.03 | 86 | 1015.5 |
| 20260902164648 | 16 | 211 | 3.2 | 12.9 | 0.03 | 0.05 | 0.03 | 84 | 1015.4 |
| 20260902164613 | 16 | 179 | 4.8 | 12.9 | 0.03 | 0.05 | 0.03 | 85 | 1015.4 |
| 20260902163449 | 16 | 180 | 1.6 | 6.4 | 0.00 | 0.03 | 0.00 | 83 | 1015.1 |
| 20260902163400 | 16 | 240 | 3.2 | 6.4 | 0.00 | 0.03 | 0.00 | 83 | 1015.3 |
| 20260902163344 | 16 | 190 | 3.2 | 8.0 | 0.00 | 0.03 | 0.00 | 84 | 1015.3 |
| 20260902163247 | 16 | 203 | 0.0 | 4.8 | 0.00 | 0.03 | 0.00 | 83 | 1015.1 |
| 20260902144608 | 15 | 142 | 0.0 | 4.8 | 0.00 | 0.03 | 0.00 | 85 | 1015.7 |
| 20260902144426 | 15 | 150 | 1.6 | 6.4 | 0.00 | 0.03 | 0.00 | 85 | 1015.9 |
| 20260902131810 | 15 | 142 | 0.0 | 6.4 | 0.00 | 0.03 | 0.00 | 84 | 1016.5 |
| 20260902131310 | 15 | 144 | 0.0 | 3.2 | 0.00 | 0.03 | 0.00 | 84 | 1016.7 |
| 20260902130804 | 15 | 119 | 0.0 | 3.2 | 0.00 | 0.03 | 0.00 | 84 | 1016.6 |
| 20260902130304 | 15 | 118 | 0.0 | 4.8 | 0.00 | 0.03 | 0.00 | 84 | 1016.8 |
| 20260902125804 | 16 | 119 | 1.6 | 4.8 | 0.00 | 0.03 | 0.00 | 83 | 1016.9 |
| 20260902125306 | 16 | 96 | 1.6 | 8.0 | 0.00 | 0.03 | 0.00 | 83 | 1017.0 |
| 20260902124804 | 16 | 136 | 3.2 | 8.0 | 0.00 | 0.03 | 0.00 | 83 | 1017.0 |
| 20260902124305 | 16 | 113 | 3.2 | 8.0 | 0.00 | 0.03 | 0.00 | 83 | 1017.0 |
| 20260902123802 | 16 | 149 | 3.2 | 9.7 | 0.00 | 0.03 | 0.00 | 83 | 1017.1 |
| 20260902123302 | 16 | 163 | 1.6 | 11.3 | 0.00 | 0.03 | 0.00 | 83 | 1017.1 |
| 20260902122803 | 16 | 126 | 1.6 | 11.3 | 0.00 | 0.03 | 0.00 | 83 | 1017.1 |
| 20260902122301 | 16 | 138 | 1.6 | 4.8 | 0.00 | 0.03 | 0.00 | 83 | 1017.3 |
| 20260902121758 | 16 | 138 | 1.6 | 4.8 | 0.00 | 0.03 | 0.00 | 83 | 1017.4 |
| 20260902121259 | 16 | 137 | 1.6 | 4.8 | 0.00 | 0.03 | 0.00 | 83 | 1017.4 |
| 20260902120752 | 16 | 129 | 1.6 | 8.0 | 0.00 | 0.03 | 0.00 | 83 | 1017.6 |
| 20260902120251 | 16 | 152 | 1.6 | 8.0 | 0.00 | 0.03 | 0.00 | 83 | 1017.7 |
| 20260902115752 | 15 | 123 | 1.6 | 8.0 | 0.00 | 0.03 | 0.00 | 83 | 1017.6 |
| 20260902115252 | 15 | 147 | 3.2 | 12.9 | 0.00 | 0.03 | 0.00 | 83 | 1017.7 |
| 20260902114752 | 15 | 203 | 3.2 | 12.9 | 0.00 | 0.03 | 0.00 | 83 | 1017.8 |
| 20260902114257 | 15 | 152 | 3.2 | 8.0 | 0.00 | 0.03 | 0.00 | 84 | 1017.9 |
| 20260902113747 | 15 | 157 | 3.2 | 6.4 | 0.00 | 0.03 | 0.00 | 84 | 1017.9 |
| 20260902113245 | 15 | 132 | 1.6 | 6.4 | 0.00 | 0.03 | 0.00 | 84 | 1018.0 |
| 20260902112746 | 15 | 148 | 1.6 | 8.0 | 0.00 | 0.03 | 0.00 | 85 | 1018.1 |
| 20260902112247 | 15 | 169 | 3.2 | 8.0 | 0.00 | 0.03 | 0.00 | 85 | 1018.2 |
| 20260902111746 | 15 | 146 | 1.6 | 8.0 | 0.00 | 0.03 | 0.00 | 85 | 1018.2 |
| 20260902111247 | 15 | 156 | 1.6 | 11.3 | 0.00 | 0.03 | 0.00 | 85 | 1018.1 |
| 20260902110740 | 15 | 155 | 3.2 | 11.3 | 0.00 | 0.03 | 0.00 | 85 | 1018.2 |
| 20260902110237 | 15 | 126 | 3.2 | 12.9 | 0.00 | 0.03 | 0.00 | 85 | 1018.4 |
| 20260902105738 | 15 | 124 | 3.2 | 12.9 | 0.00 | 0.03 | 0.00 | 85 | 1018.4 |
| 20260902105239 | 15 | 152 | 3.2 | 11.3 | 0.00 | 0.03 | 0.00 | 85 | 1018.7 |
| 20260902104737 | 15 | 153 | 3.2 | 11.3 | 0.00 | 0.03 | 0.00 | 85 | 1018.5 |
| 20260902104239 | 15 | 204 | 1.6 | 11.3 | 0.00 | 0.03 | 0.00 | 85 | 1018.8 |
| 20260902103737 | 15 | 150 | 1.6 | 6.4 | 0.00 | 0.03 | 0.00 | 85 | 1018.9 |
| 20260902103234 | 15 | 144 | 3.2 | 11.3 | 0.00 | 0.03 | 0.00 | 85 | 1019.0 |
| 20260902102735 | 15 | 136 | 3.2 | 11.3 | 0.00 | 0.03 | 0.00 | 86 | 1018.9 |
| 20260902102233 | 15 | 161 | 1.6 | 11.3 | 0.00 | 0.03 | 0.00 | 86 | 1018.9 |
| 20260902101732 | 15 | 142 | 1.6 | 11.3 | 0.00 | 0.03 | 0.00 | 86 | 1019.0 |
| 20260902101232 | 15 | 142 | 1.6 | 9.7 | 0.00 | 0.03 | 0.00 | 86 | 1019.2 |
| 20260902100727 | 15 | 141 | 1.6 | 8.0 | 0.00 | 0.03 | 0.00 | 86 | 1019.1 |
| 20260902100227 | 15 | 159 | 3.2 | 8.0 | 0.00 | 0.03 | 0.00 | 86 | 1019.1 |
| 20260902095726 | 15 | 150 | 1.6 | 8.0 | 0.00 | 0.03 | 0.00 | 86 | 1019.2 |
| 20260902095223 | 15 | 181 | 0.0 | 6.4 | 0.00 | 0.03 | 0.00 | 86 | 1019.3 |
| 20260902094724 | 15 | 130 | 0.0 | 3.2 | 0.00 | 0.03 | 0.00 | 86 | 1019.3 |
| 20260902094224 | 15 | 130 | 0.0 | 6.4 | 0.00 | 0.03 | 0.00 | 86 | 1019.2 |
| 20260902093717 | 15 | 132 | 0.0 | 6.4 | 0.00 | 0.03 | 0.00 | 85 | 1019.2 |
| 20260902093219 | 15 | 144 | 0.0 | 1.6 | 0.00 | 0.03 | 0.00 | 85 | 1019.3 |
| 20260902092718 | 15 | 143 | 0.0 | 1.6 | 0.00 | 0.03 | 0.00 | 85 | 1019.4 |
| 20260902092217 | 15 | 143 | 0.0 | 1.6 | 0.00 | 0.03 | 0.00 | 84 | 1019.4 |
| 20260902091718 | 15 | 143 | 0.0 | 3.2 | 0.00 | 0.03 | 0.00 | 84 | 1019.4 |
| 20260902091219 | 15 | 144 | 0.0 | 4.8 | 0.00 | 0.03 | 0.00 | 84 | 1019.5 |
| 20260902090713 | 15 | 143 | 0.0 | 4.8 | 0.00 | 0.03 | 0.00 | 83 | 1019.6 |
| 20260902090214 | 15 | 131 | 0.0 | 4.8 | 0.00 | 0.03 | 0.00 | 83 | 1019.6 |
| 20260902085712 | 15 | 132 | 1.6 | 4.8 | 0.00 | 0.03 | 0.00 | 83 | 1019.7 |
| 20260902085212 | 15 | 141 | 1.6 | 6.4 | 0.00 | 0.03 | 0.00 | 83 | 1019.7 |
| 20260902084712 | 15 | 142 | 3.2 | 9.7 | 0.00 | 0.03 | 0.00 | 83 | 1019.9 |
| 20260902084211 | 15 | 150 | 1.6 | 9.7 | 0.00 | 0.03 | 0.00 | 83 | 1019.8 |
| 20260902083706 | 15 | 185 | 1.6 | 9.7 | 0.00 | 0.03 | 0.00 | 83 | 1019.9 |
| 20260902083205 | 15 | 162 | 1.6 | 9.7 | 0.00 | 0.03 | 0.00 | 83 | 1019.8 |
| 20260902082707 | 15 | 154 | 1.6 | 8.0 | 0.00 | 0.03 | 0.00 | 83 | 1020.0 |
| 20260902082207 | 15 | 168 | 0.0 | 4.8 | 0.00 | 0.03 | 0.00 | 83 | 1020.0 |
| 20260902081704 | 15 | 166 | 1.6 | 4.8 | 0.00 | 0.03 | 0.00 | 83 | 1020.0 |
| 20260902081204 | 15 | 161 | 1.6 | 4.8 | 0.00 | 0.03 | 0.00 | 83 | 1020.1 |
| 20260902080659 | 15 | 157 | 1.6 | 8.0 | 0.00 | 0.03 | 0.00 | 83 | 1020.0 |
| 20260902080153 | 15 | 169 | 1.6 | 8.0 | 0.00 | 0.03 | 0.00 | 83 | 1020.1 |